Darstellungsparameter: Aktuell verwendete Einstellungen:
Skalierung der Graphiken ... ?
xyx+y,   Skalierungsfaktor:      Skalierung: Modus: x, Faktor: 1
Darstellungszeitraum ... ?
Vom - - bis: - -   Zeitraum: 25.09.2019 - 25.09.2019
Min/Max/Avg-Anzeige ... ?
Zeige MMA aktuell
Zeige MMA Monat
Zeige MMA alles
Zeige --A aktuell
Zeige --A Monat
Zeige --A alles
Keine MMA-Anzeige
MMA:
Average (ber die Originaldaten)
MMA-Basis: 25.09.2019 - 25.09.2019
Quicknavigation für Darstellung... ?
Tage:      1T, 2T, 3T, 5T -1T -2T -3T -5T +1T +2T +3T +5T
Wochen: 1W, 2W, 3W -1W -2W -3W +1W +2W +3W
Monate: 1M, 3M, 6M -1M -3M -6M +1M +3M +6M
Jahre:    1J, 3J, 5J, 10J -1J -3J -5J -10J +1J +3J +5J +10J
Nutze für die Darstellung ... ?
Originaldaten oder Mittelwerte auf ...
Stundenbasis Tagesbasis Wochenbasis
Monatsbasis Jahresbasis      Datenbasis: Original-Daten
Darstellen als:
Statistik (Auto) Statistik J:M      Darstellung:
Zur Graphik,    zurück zur Übersicht aller Sensoren.
 
Tabellarische Datenbersicht: ?
 
Sensor: Nr:Datum:Temp:Abs-Feuchte:Windchill:Wind:
Aussen-T/F 1 25-09-2019 00:00:00 13.9 C 11.51 g/m*3 13.9 C 0 km/h
2 25-09-2019 00:05:00 13.9 C 11.51 g/m*3 13.9 C 0 km/h
3 25-09-2019 00:10:00 13.9 C 11.51 g/m*3 13.9 C 0 km/h
4 25-09-2019 00:15:00 13.9 C 11.51 g/m*3 13.9 C 0 km/h
5 25-09-2019 00:20:00 14 C 11.58 g/m*3 14 C 0 km/h
6 25-09-2019 00:25:00 14 C 11.58 g/m*3 14 C 0 km/h
7 25-09-2019 00:30:00 14 C 11.58 g/m*3 14 C 0 km/h
8 25-09-2019 00:35:00 14 C 11.58 g/m*3 14 C 0 km/h
9 25-09-2019 00:40:00 14 C 11.58 g/m*3 14 C 0 km/h
10 25-09-2019 00:45:00 14.1 C 11.65 g/m*3 14.1 C 0 km/h
11 25-09-2019 00:50:00 14.1 C 11.65 g/m*3 14.1 C 1.6 km/h
12 25-09-2019 00:55:00 14.1 C 11.65 g/m*3 14.1 C 0 km/h
13 25-09-2019 01:00:00 14.1 C 11.65 g/m*3 14.1 C 0 km/h
14 25-09-2019 01:05:00 14.1 C 11.65 g/m*3 14.1 C 0 km/h
15 25-09-2019 01:10:00 14.1 C 11.65 g/m*3 14.1 C 0 km/h
16 25-09-2019 01:15:00 14.1 C 11.65 g/m*3 14.1 C 0 km/h
17 25-09-2019 01:20:00 14.1 C 11.65 g/m*3 14.1 C 0 km/h
18 25-09-2019 01:25:00 14.1 C 11.65 g/m*3 14.1 C 0 km/h
19 25-09-2019 01:30:00 14.1 C 11.65 g/m*3 14.1 C 0 km/h
20 25-09-2019 01:35:00 14.1 C 11.65 g/m*3 14.1 C 0 km/h
21 25-09-2019 01:40:00 14.1 C 11.77 g/m*3 14.1 C 0 km/h
22 25-09-2019 01:45:00 14.2 C 11.84 g/m*3 14.2 C 1.6 km/h
23 25-09-2019 01:50:00 14.2 C 11.84 g/m*3 14.2 C 6.4 km/h
24 25-09-2019 01:55:00 14.3 C 11.92 g/m*3 14.3 C 8.1 km/h
25 25-09-2019 02:00:00 14.3 C 11.79 g/m*3 14.3 C 8.1 km/h
Sensor: Nr:Datum:Temp:Abs-Feuchte:Windchill:Wind:
Aussen-T/F 26 25-09-2019 02:05:00 14.3 C 11.79 g/m*3 14.3 C 8.1 km/h
27 25-09-2019 02:10:00 14.4 C 11.87 g/m*3 14.4 C 4.8 km/h
28 25-09-2019 02:15:00 14.4 C 11.87 g/m*3 14.4 C 1.6 km/h
29 25-09-2019 02:20:00 14.4 C 11.87 g/m*3 14.4 C 6.4 km/h
30 25-09-2019 02:25:00 14.5 C 11.94 g/m*3 14.5 C 4.8 km/h
31 25-09-2019 02:30:00 14.6 C 12.01 g/m*3 14.6 C 1.6 km/h
32 25-09-2019 02:35:00 14.6 C 12.01 g/m*3 14.6 C 3.2 km/h
33 25-09-2019 02:40:00 14.6 C 12.01 g/m*3 14.6 C 1.6 km/h
34 25-09-2019 02:45:00 14.6 C 12.01 g/m*3 14.6 C 0 km/h
35 25-09-2019 02:50:00 14.6 C 12.01 g/m*3 14.6 C 0 km/h
36 25-09-2019 02:55:00 14.6 C 12.01 g/m*3 14.6 C 0 km/h
37 25-09-2019 03:00:00 14.6 C 12.01 g/m*3 14.6 C 1.6 km/h
38 25-09-2019 03:05:00 14.6 C 12.01 g/m*3 14.6 C 0 km/h
39 25-09-2019 03:10:00 14.6 C 12.01 g/m*3 14.6 C 0 km/h
40 25-09-2019 03:15:00 14.6 C 12.01 g/m*3 14.6 C 0 km/h
41 25-09-2019 03:20:00 14.6 C 12.01 g/m*3 14.6 C 0 km/h
42 25-09-2019 03:25:00 14.6 C 12.01 g/m*3 14.6 C 1.6 km/h
43 25-09-2019 03:30:00 14.6 C 12.01 g/m*3 14.6 C 1.6 km/h
44 25-09-2019 03:35:00 14.6 C 12.01 g/m*3 14.6 C 0 km/h
45 25-09-2019 03:40:00 14.6 C 12.01 g/m*3 14.6 C 0 km/h
46 25-09-2019 03:45:00 14.6 C 12.01 g/m*3 14.6 C 0 km/h
47 25-09-2019 03:50:00 14.6 C 12.01 g/m*3 14.6 C 0 km/h
48 25-09-2019 03:55:00 14.6 C 12.01 g/m*3 14.6 C 0 km/h
49 25-09-2019 04:00:00 14.6 C 12.01 g/m*3 14.6 C 0 km/h
50 25-09-2019 04:05:00 14.6 C 12.01 g/m*3 14.6 C 0 km/h
Sensor: Nr:Datum:Temp:Abs-Feuchte:Windchill:Wind:
Aussen-T/F 51 25-09-2019 04:10:00 14.6 C 12.01 g/m*3 14.6 C 0 km/h
52 25-09-2019 04:15:00 14.6 C 12.01 g/m*3 14.6 C 0 km/h
53 25-09-2019 04:20:00 14.6 C 12.01 g/m*3 14.6 C 0 km/h
54 25-09-2019 04:25:00 14.6 C 12.01 g/m*3 14.6 C 0 km/h
55 25-09-2019 04:30:00 14.6 C 12.01 g/m*3 14.6 C 0 km/h
56 25-09-2019 04:35:00 14.6 C 12.01 g/m*3 14.6 C 0 km/h
57 25-09-2019 04:40:00 14.6 C 12.01 g/m*3 14.6 C 3.2 km/h
58 25-09-2019 04:45:00 14.5 C 11.94 g/m*3 14.5 C 1.6 km/h
59 25-09-2019 04:50:00 14.4 C 11.87 g/m*3 14.4 C 1.6 km/h
60 25-09-2019 04:55:00 14.4 C 11.87 g/m*3 14.4 C 0 km/h
61 25-09-2019 05:00:00 14.3 C 11.79 g/m*3 14.3 C 0 km/h
62 25-09-2019 05:05:00 14.3 C 11.79 g/m*3 14.3 C 1.6 km/h
63 25-09-2019 05:10:00 14.2 C 11.72 g/m*3 14.2 C 0 km/h
64 25-09-2019 05:15:00 14.2 C 11.72 g/m*3 14.2 C 1.6 km/h
65 25-09-2019 05:20:00 14.1 C 11.65 g/m*3 14.1 C 0 km/h
66 25-09-2019 05:25:00 14.1 C 11.65 g/m*3 14.1 C 1.6 km/h
67 25-09-2019 05:30:00 14 C 11.58 g/m*3 14 C 0 km/h
68 25-09-2019 05:35:00 13.9 C 11.51 g/m*3 13.9 C 3.2 km/h
69 25-09-2019 05:40:00 13.9 C 11.51 g/m*3 13.9 C 1.6 km/h
70 25-09-2019 05:45:00 13.8 C 11.44 g/m*3 13.8 C 1.6 km/h
71 25-09-2019 05:50:00 13.7 C 11.37 g/m*3 13.7 C 4.8 km/h
72 25-09-2019 05:55:00 13.7 C 11.37 g/m*3 13.7 C 0 km/h
73 25-09-2019 06:00:00 13.7 C 11.37 g/m*3 13.7 C 0 km/h
74 25-09-2019 06:05:00 13.7 C 11.37 g/m*3 13.7 C 1.6 km/h
75 25-09-2019 06:10:00 13.6 C 11.3 g/m*3 13.6 C 1.6 km/h
Sensor: Nr:Datum:Temp:Abs-Feuchte:Windchill:Wind:
Aussen-T/F 76 25-09-2019 06:15:00 13.6 C 11.3 g/m*3 13.6 C 0 km/h
77 25-09-2019 06:20:00 13.6 C 11.3 g/m*3 13.6 C 0 km/h
78 25-09-2019 06:25:00 13.6 C 11.3 g/m*3 13.6 C 0 km/h
79 25-09-2019 06:30:00 13.6 C 11.3 g/m*3 13.6 C 0 km/h
80 25-09-2019 06:35:00 13.6 C 11.3 g/m*3 13.6 C 1.6 km/h
81 25-09-2019 06:40:00 13.6 C 11.3 g/m*3 13.6 C 3.2 km/h
82 25-09-2019 06:45:00 13.7 C 11.37 g/m*3 13.7 C 1.6 km/h
83 25-09-2019 06:50:00 13.7 C 11.37 g/m*3 13.7 C 1.6 km/h
84 25-09-2019 06:55:00 13.7 C 11.37 g/m*3 13.7 C 0 km/h
85 25-09-2019 07:00:00 13.7 C 11.37 g/m*3 13.7 C 1.6 km/h
86 25-09-2019 07:05:00 13.7 C 11.37 g/m*3 13.7 C 0 km/h
87 25-09-2019 07:10:00 13.6 C 11.3 g/m*3 13.6 C 0 km/h
88 25-09-2019 07:15:00 13.6 C 11.3 g/m*3 13.6 C 0 km/h
89 25-09-2019 07:20:00 13.6 C 11.3 g/m*3 13.6 C 0 km/h
90 25-09-2019 07:25:00 13.6 C 11.3 g/m*3 13.6 C 1.6 km/h
91 25-09-2019 07:30:00 13.6 C 11.3 g/m*3 13.6 C 0 km/h
92 25-09-2019 07:35:00 13.6 C 11.3 g/m*3 13.6 C 1.6 km/h
93 25-09-2019 07:40:00 13.6 C 11.3 g/m*3 13.6 C 3.2 km/h
94 25-09-2019 07:45:00 13.6 C 11.42 g/m*3 13.6 C 1.6 km/h
95 25-09-2019 07:50:00 13.6 C 11.42 g/m*3 13.6 C 0 km/h
96 25-09-2019 07:55:00 13.6 C 11.3 g/m*3 13.6 C 0 km/h
97 25-09-2019 08:00:00 13.6 C 11.42 g/m*3 13.6 C 0 km/h
98 25-09-2019 08:05:00 13.6 C 11.3 g/m*3 13.6 C 0 km/h
99 25-09-2019 08:10:00 13.6 C 11.42 g/m*3 13.6 C 0 km/h
100 25-09-2019 08:15:00 13.6 C 11.42 g/m*3 13.6 C 0 km/h
Sensor: Nr:Datum:Temp:Abs-Feuchte:Windchill:Wind:
Aussen-T/F 101 25-09-2019 08:20:00 13.6 C 11.42 g/m*3 13.6 C 0 km/h
102 25-09-2019 08:25:00 13.7 C 11.49 g/m*3 13.7 C 0 km/h
103 25-09-2019 08:30:00 13.7 C 11.49 g/m*3 13.7 C 0 km/h
104 25-09-2019 08:35:00 13.8 C 11.56 g/m*3 13.8 C 0 km/h
105 25-09-2019 08:40:00 13.8 C 11.56 g/m*3 13.8 C 0 km/h
106 25-09-2019 08:45:00 13.9 C 11.63 g/m*3 13.9 C 0 km/h
107 25-09-2019 08:50:00 14 C 11.7 g/m*3 14 C 0 km/h
108 25-09-2019 08:55:00 14.1 C 11.77 g/m*3 14.1 C 0 km/h
109 25-09-2019 09:00:00 14.1 C 11.77 g/m*3 14.1 C 1.6 km/h
110 25-09-2019 09:05:00 14.1 C 11.77 g/m*3 14.1 C 0 km/h
111 25-09-2019 09:10:00 14.1 C 11.77 g/m*3 14.1 C 0 km/h
112 25-09-2019 09:15:00 14.2 C 11.84 g/m*3 14.2 C 0 km/h
113 25-09-2019 09:20:00 14.2 C 11.84 g/m*3 14.2 C 3.2 km/h
114 25-09-2019 09:25:00 14.3 C 11.92 g/m*3 14.3 C 1.6 km/h
115 25-09-2019 09:30:00 14.4 C 11.99 g/m*3 14.4 C 0 km/h
116 25-09-2019 09:35:00 14.4 C 11.99 g/m*3 14.4 C 0 km/h
117 25-09-2019 09:40:00 14.6 C 12.14 g/m*3 14.6 C 0 km/h
118 25-09-2019 09:45:00 14.6 C 12.14 g/m*3 14.6 C 1.6 km/h
119 25-09-2019 09:50:00 14.6 C 12.14 g/m*3 14.6 C 3.2 km/h
120 25-09-2019 09:55:00 14.4 C 11.99 g/m*3 14.4 C 4.8 km/h
121 25-09-2019 10:00:00 14.4 C 11.99 g/m*3 14.4 C 1.6 km/h
122 25-09-2019 10:05:00 14.4 C 11.87 g/m*3 14.4 C 0 km/h
123 25-09-2019 10:10:00 14.5 C 11.94 g/m*3 14.5 C 1.6 km/h
124 25-09-2019 10:15:00 14.6 C 12.01 g/m*3 14.6 C 9.7 km/h
125 25-09-2019 10:20:00 14.7 C 12.09 g/m*3 14.7 C 9.7 km/h
Sensor: Nr:Datum:Temp:Abs-Feuchte:Windchill:Wind:
Aussen-T/F 126 25-09-2019 10:25:00 14.8 C 12.03 g/m*3 14.8 C 8.1 km/h
127 25-09-2019 10:30:00 14.9 C 12.11 g/m*3 14.9 C 8.1 km/h
128 25-09-2019 10:35:00 15.1 C 12.13 g/m*3 15.1 C 8.1 km/h
129 25-09-2019 10:40:00 15.2 C 12.07 g/m*3 15.2 C 12.9 km/h
130 25-09-2019 10:45:00 15.3 C 12.01 g/m*3 15.3 C 12.9 km/h
131 25-09-2019 10:50:00 15.4 C 11.96 g/m*3 15.4 C 16.1 km/h
132 25-09-2019 10:55:00 15.6 C 12.1 g/m*3 15.6 C 12.9 km/h
133 25-09-2019 11:00:00 15.7 C 12.04 g/m*3 15.7 C 16.1 km/h
134 25-09-2019 11:05:00 15.8 C 12.11 g/m*3 15.8 C 17.7 km/h
135 25-09-2019 11:10:00 15.9 C 11.92 g/m*3 15.9 C 11.3 km/h
136 25-09-2019 11:15:00 16 C 11.99 g/m*3 16 C 11.3 km/h
137 25-09-2019 11:20:00 16.1 C 11.93 g/m*3 16.1 C 16.1 km/h
138 25-09-2019 11:25:00 16.2 C 12 g/m*3 16.2 C 17.7 km/h
139 25-09-2019 11:30:00 16.3 C 11.93 g/m*3 16.3 C 12.9 km/h
140 25-09-2019 11:35:00 16.4 C 12 g/m*3 16.4 C 11.3 km/h
141 25-09-2019 11:40:00 16.5 C 11.8 g/m*3 16.5 C 6.4 km/h
142 25-09-2019 11:45:00 16.6 C 11.87 g/m*3 16.6 C 12.9 km/h
143 25-09-2019 11:50:00 16.6 C 11.87 g/m*3 16.6 C 11.3 km/h
144 25-09-2019 11:55:00 16.6 C 11.72 g/m*3 16.6 C 19.3 km/h
145 25-09-2019 12:00:00 16.5 C 11.51 g/m*3 16.5 C 8.1 km/h
146 25-09-2019 12:05:00 16.5 C 11.51 g/m*3 16.5 C 11.3 km/h
147 25-09-2019 12:10:00 16.6 C 11.72 g/m*3 16.6 C 4.8 km/h
148 25-09-2019 12:15:00 16.8 C 11.72 g/m*3 16.8 C 8.1 km/h
149 25-09-2019 12:20:00 16.8 C 11.44 g/m*3 16.8 C 16.1 km/h
150 25-09-2019 12:25:00 17 C 11.72 g/m*3 17 C 8.1 km/h
Sensor: Nr:Datum:Temp:Abs-Feuchte:Windchill:Wind:
Aussen-T/F 151 25-09-2019 12:30:00 17.2 C 11.86 g/m*3 17.2 C 11.3 km/h
152 25-09-2019 12:35:00 17.2 C 11.72 g/m*3 17.2 C 8.1 km/h
153 25-09-2019 12:40:00 17 C 11.43 g/m*3 17 C 14.5 km/h
154 25-09-2019 12:45:00 16.9 C 11.36 g/m*3 16.9 C 11.3 km/h
155 25-09-2019 12:50:00 16.9 C 11.36 g/m*3 16.9 C 12.9 km/h
156 25-09-2019 12:55:00 17.1 C 11.5 g/m*3 17.1 C 9.7 km/h
157 25-09-2019 13:00:00 17.1 C 11.5 g/m*3 17.1 C 14.5 km/h
158 25-09-2019 13:05:00 17.2 C 11.72 g/m*3 17.2 C 14.5 km/h
159 25-09-2019 13:10:00 17.2 C 11.42 g/m*3 17.2 C 11.3 km/h
160 25-09-2019 13:15:00 17.2 C 11.42 g/m*3 17.2 C 11.3 km/h
161 25-09-2019 13:20:00 17.3 C 11.34 g/m*3 17.3 C 12.9 km/h
162 25-09-2019 13:25:00 17.3 C 11.34 g/m*3 17.3 C 17.7 km/h
163 25-09-2019 13:30:00 17.3 C 11.49 g/m*3 17.3 C 6.4 km/h
164 25-09-2019 13:35:00 17.4 C 11.41 g/m*3 17.4 C 8.1 km/h
165 25-09-2019 13:40:00 17.6 C 11.4 g/m*3 17.6 C 12.9 km/h
166 25-09-2019 13:45:00 17.6 C 11.55 g/m*3 17.6 C 12.9 km/h
167 25-09-2019 13:50:00 17.7 C 11.32 g/m*3 17.7 C 12.9 km/h
168 25-09-2019 13:55:00 17.7 C 11.62 g/m*3 17.7 C 6.4 km/h
169 25-09-2019 14:00:00 17.9 C 11.45 g/m*3 17.9 C 9.7 km/h
170 25-09-2019 14:05:00 17.9 C 11.45 g/m*3 17.9 C 11.3 km/h
171 25-09-2019 14:10:00 17.9 C 11.45 g/m*3 17.9 C 11.3 km/h
172 25-09-2019 14:15:00 17.8 C 11.38 g/m*3 17.8 C 14.5 km/h
173 25-09-2019 14:20:00 17.7 C 11.47 g/m*3 17.7 C 9.7 km/h
174 25-09-2019 14:25:00 17.6 C 11.4 g/m*3 17.6 C 12.9 km/h
175 25-09-2019 14:30:00 17.3 C 11.49 g/m*3 17.3 C 9.7 km/h
Sensor: Nr:Datum:Temp:Abs-Feuchte:Windchill:Wind:
Aussen-T/F 176 25-09-2019 14:35:00 17.2 C 11.42 g/m*3 17.2 C 8.1 km/h
177 25-09-2019 14:40:00 17 C 11.72 g/m*3 17 C 14.5 km/h
178 25-09-2019 14:45:00 16.9 C 11.65 g/m*3 16.9 C 6.4 km/h
179 25-09-2019 14:50:00 16.8 C 11.87 g/m*3 16.8 C 8.1 km/h
180 25-09-2019 14:55:00 16.6 C 12.01 g/m*3 16.6 C 8.1 km/h
181 25-09-2019 15:00:00 16.3 C 12.07 g/m*3 16.3 C 4.8 km/h
182 25-09-2019 15:05:00 16.1 C 12.2 g/m*3 16.1 C 4.8 km/h
183 25-09-2019 15:10:00 16.1 C 12.34 g/m*3 16.1 C 4.8 km/h
184 25-09-2019 15:15:00 16.2 C 12.41 g/m*3 16.2 C 3.2 km/h
185 25-09-2019 15:20:00 16.2 C 12.41 g/m*3 16.2 C 4.8 km/h
186 25-09-2019 15:25:00 16.3 C 12.62 g/m*3 16.3 C 4.8 km/h
187 25-09-2019 15:30:00 16.4 C 12.56 g/m*3 16.4 C 4.8 km/h
188 25-09-2019 15:35:00 16.4 C 12.42 g/m*3 16.4 C 6.4 km/h
189 25-09-2019 15:40:00 16.4 C 12.42 g/m*3 16.4 C 6.4 km/h
190 25-09-2019 15:45:00 16.4 C 12.42 g/m*3 16.4 C 4.8 km/h
191 25-09-2019 15:50:00 16.5 C 12.5 g/m*3 16.5 C 1.6 km/h
192 25-09-2019 15:55:00 16.6 C 12.43 g/m*3 16.6 C 6.4 km/h
193 25-09-2019 16:00:00 16.6 C 12.15 g/m*3 16.6 C 8.1 km/h
194 25-09-2019 16:05:00 16.7 C 12.36 g/m*3 16.7 C 9.7 km/h
195 25-09-2019 16:10:00 16.9 C 12.37 g/m*3 16.9 C 6.4 km/h
196 25-09-2019 16:15:00 16.9 C 12.37 g/m*3 16.9 C 9.7 km/h
197 25-09-2019 16:20:00 17 C 12.3 g/m*3 17 C 6.4 km/h
198 25-09-2019 16:25:00 17.1 C 12.37 g/m*3 17.1 C 11.3 km/h
199 25-09-2019 16:30:00 17.2 C 12.15 g/m*3 17.2 C 8.1 km/h
200 25-09-2019 16:35:00 17.3 C 12.37 g/m*3 17.3 C 3.2 km/h
Sensor: Nr:Datum:Temp:Abs-Feuchte:Windchill:Wind:
Aussen-T/F 201 25-09-2019 16:40:00 17.3 C 12.37 g/m*3 17.3 C 1.6 km/h
202 25-09-2019 16:45:00 17.3 C 12.67 g/m*3 17.3 C 6.4 km/h
203 25-09-2019 16:50:00 17.3 C 12.52 g/m*3 17.3 C 11.3 km/h
204 25-09-2019 16:55:00 17.4 C 12.3 g/m*3 17.4 C 6.4 km/h
205 25-09-2019 17:00:00 17.6 C 12.45 g/m*3 17.6 C 11.3 km/h
206 25-09-2019 17:05:00 17.7 C 12.37 g/m*3 17.7 C 9.7 km/h
207 25-09-2019 17:10:00 17.8 C 12.29 g/m*3 17.8 C 6.4 km/h
208 25-09-2019 17:15:00 17.7 C 12.07 g/m*3 17.7 C 8.1 km/h
209 25-09-2019 17:20:00 17.6 C 12.15 g/m*3 17.6 C 6.4 km/h
210 25-09-2019 17:25:00 17.5 C 12.23 g/m*3 17.5 C 3.2 km/h
211 25-09-2019 17:30:00 17.4 C 12.15 g/m*3 17.4 C 4.8 km/h
212 25-09-2019 17:35:00 17.4 C 12.15 g/m*3 17.4 C 8.1 km/h
213 25-09-2019 17:40:00 17.4 C 12.3 g/m*3 17.4 C 6.4 km/h
214 25-09-2019 17:45:00 17.4 C 12 g/m*3 17.4 C 6.4 km/h
215 25-09-2019 17:50:00 17.4 C 12 g/m*3 17.4 C 6.4 km/h
216 25-09-2019 17:55:00 17.5 C 12.08 g/m*3 17.5 C 9.7 km/h
217 25-09-2019 18:00:00 17.5 C 12.08 g/m*3 17.5 C 6.4 km/h
218 25-09-2019 18:05:00 17.4 C 11.71 g/m*3 17.4 C 6.4 km/h
219 25-09-2019 18:10:00 17.3 C 11.93 g/m*3 17.3 C 8.1 km/h
220 25-09-2019 18:15:00 17.2 C 11.86 g/m*3 17.2 C 0 km/h
221 25-09-2019 18:20:00 17 C 12.01 g/m*3 17 C 1.6 km/h
222 25-09-2019 18:25:00 16.8 C 12.01 g/m*3 16.8 C 0 km/h
223 25-09-2019 18:30:00 16.7 C 11.94 g/m*3 16.7 C 1.6 km/h
224 25-09-2019 18:35:00 16.6 C 12.01 g/m*3 16.6 C 0 km/h
225 25-09-2019 18:40:00 16.4 C 12 g/m*3 16.4 C 1.6 km/h
Sensor: Nr:Datum:Temp:Abs-Feuchte:Windchill:Wind:
Aussen-T/F 226 25-09-2019 18:45:00 16.3 C 11.93 g/m*3 16.3 C 0 km/h
227 25-09-2019 18:50:00 16.1 C 11.65 g/m*3 16.1 C 0 km/h
228 25-09-2019 18:55:00 16 C 11.72 g/m*3 16 C 4.8 km/h
229 25-09-2019 19:00:00 15.9 C 11.65 g/m*3 15.9 C 3.2 km/h
230 25-09-2019 19:05:00 15.9 C 11.78 g/m*3 15.9 C 0 km/h
231 25-09-2019 19:10:00 15.8 C 11.71 g/m*3 15.8 C 0 km/h
232 25-09-2019 19:15:00 15.7 C 11.64 g/m*3 15.7 C 1.6 km/h
233 25-09-2019 19:20:00 15.7 C 11.77 g/m*3 15.7 C 1.6 km/h
234 25-09-2019 19:25:00 15.7 C 11.77 g/m*3 15.7 C 0 km/h
235 25-09-2019 19:30:00 15.6 C 11.7 g/m*3 15.6 C 0 km/h
236 25-09-2019 19:35:00 15.6 C 11.7 g/m*3 15.6 C 0 km/h
237 25-09-2019 19:40:00 15.5 C 11.76 g/m*3 15.5 C 0 km/h
238 25-09-2019 19:45:00 15.4 C 11.69 g/m*3 15.4 C 0 km/h
239 25-09-2019 19:50:00 15.4 C 11.69 g/m*3 15.4 C 0 km/h
240 25-09-2019 19:55:00 15.3 C 11.75 g/m*3 15.3 C 0 km/h
241 25-09-2019 20:00:00 15.3 C 11.75 g/m*3 15.3 C 0 km/h
242 25-09-2019 20:05:00 15.3 C 11.75 g/m*3 15.3 C 0 km/h
243 25-09-2019 20:10:00 15.3 C 11.75 g/m*3 15.3 C 0 km/h
244 25-09-2019 20:15:00 15.2 C 11.81 g/m*3 15.2 C 0 km/h
245 25-09-2019 20:20:00 15.2 C 11.81 g/m*3 15.2 C 0 km/h
246 25-09-2019 20:25:00 15.2 C 11.81 g/m*3 15.2 C 0 km/h
247 25-09-2019 20:30:00 15.1 C 11.74 g/m*3 15.1 C 0 km/h
248 25-09-2019 20:35:00 15.1 C 11.74 g/m*3 15.1 C 0 km/h
249 25-09-2019 20:40:00 15 C 11.8 g/m*3 15 C 0 km/h
250 25-09-2019 20:45:00 14.9 C 11.73 g/m*3 14.9 C 0 km/h
Sensor: Nr:Datum:Temp:Abs-Feuchte:Windchill:Wind:
Aussen-T/F 251 25-09-2019 20:50:00 14.9 C 11.73 g/m*3 14.9 C 0 km/h
252 25-09-2019 20:55:00 14.8 C 11.65 g/m*3 14.8 C 0 km/h
253 25-09-2019 21:00:00 14.8 C 11.65 g/m*3 14.8 C 1.6 km/h
254 25-09-2019 21:05:00 14.8 C 11.65 g/m*3 14.8 C 0 km/h
255 25-09-2019 21:10:00 14.7 C 11.58 g/m*3 14.7 C 0 km/h
256 25-09-2019 21:15:00 14.7 C 11.71 g/m*3 14.7 C 0 km/h
257 25-09-2019 21:20:00 14.7 C 11.71 g/m*3 14.7 C 0 km/h
258 25-09-2019 21:25:00 14.7 C 11.71 g/m*3 14.7 C 0 km/h
259 25-09-2019 21:30:00 14.7 C 11.71 g/m*3 14.7 C 0 km/h
260 25-09-2019 21:35:00 14.7 C 11.71 g/m*3 14.7 C 0 km/h
261 25-09-2019 21:40:00 14.7 C 11.71 g/m*3 14.7 C 0 km/h
262 25-09-2019 21:45:00 14.7 C 11.71 g/m*3 14.7 C 0 km/h
263 25-09-2019 21:50:00 14.7 C 11.71 g/m*3 14.7 C 0 km/h
264 25-09-2019 21:55:00 14.7 C 11.71 g/m*3 14.7 C 0 km/h
265 25-09-2019 22:00:00 14.7 C 11.71 g/m*3 14.7 C 0 km/h
266 25-09-2019 22:05:00 14.7 C 11.71 g/m*3 14.7 C 0 km/h
267 25-09-2019 22:10:00 14.7 C 11.71 g/m*3 14.7 C 0 km/h
268 25-09-2019 22:15:00 14.7 C 11.83 g/m*3 14.7 C 0 km/h
269 25-09-2019 22:20:00 14.7 C 11.83 g/m*3 14.7 C 0 km/h
270 25-09-2019 22:25:00 14.7 C 11.83 g/m*3 14.7 C 0 km/h
271 25-09-2019 22:30:00 14.7 C 11.83 g/m*3 14.7 C 0 km/h
272 25-09-2019 22:35:00 14.7 C 11.83 g/m*3 14.7 C 0 km/h
273 25-09-2019 22:40:00 14.7 C 11.83 g/m*3 14.7 C 0 km/h
274 25-09-2019 22:45:00 14.7 C 11.83 g/m*3 14.7 C 0 km/h
275 25-09-2019 22:50:00 14.7 C 11.83 g/m*3 14.7 C 0 km/h
Sensor: Nr:Datum:Temp:Abs-Feuchte:Windchill:Wind:
Aussen-T/F 276 25-09-2019 22:55:00 14.7 C 11.83 g/m*3 14.7 C 0 km/h
277 25-09-2019 23:00:00 14.7 C 11.96 g/m*3 14.7 C 0 km/h
278 25-09-2019 23:05:00 14.7 C 11.96 g/m*3 14.7 C 0 km/h
279 25-09-2019 23:10:00 14.7 C 11.96 g/m*3 14.7 C 0 km/h
280 25-09-2019 23:15:00 14.7 C 11.96 g/m*3 14.7 C 0 km/h
281 25-09-2019 23:20:00 14.7 C 11.96 g/m*3 14.7 C 0 km/h
282 25-09-2019 23:25:00 14.7 C 11.96 g/m*3 14.7 C 0 km/h
283 25-09-2019 23:30:00 14.7 C 11.96 g/m*3 14.7 C 0 km/h
284 25-09-2019 23:35:00 14.6 C 11.89 g/m*3 14.6 C 0 km/h
285 25-09-2019 23:40:00 14.6 C 11.89 g/m*3 14.6 C 0 km/h
286 25-09-2019 23:45:00 14.6 C 11.89 g/m*3 14.6 C 0 km/h
287 25-09-2019 23:50:00 14.6 C 11.89 g/m*3 14.6 C 0 km/h
288 25-09-2019 23:55:00 14.6 C 11.89 g/m*3 14.6 C 0 km/h

Legende:
   Min
   Max


Maximal/Minimal-Werte vom 25.09.2019 - 25.09.2019

Sensor Min Max Avg
Temp
(Aussen-T/F)
13.6 °C
25-09-2019  06:10:00
17.9 °C
25-09-2019  14:00:00
15.27 °C
Abs-Feuchte
(Aussen-T/F)
11.3 g/m*3
25-09-2019  06:10:00
12.67 g/m*3
25-09-2019  16:45:00
11.76 g/m*3
Windchill
(Aussen-T/F)
13.6 C
25-09-2019  06:10:00
17.9 C
25-09-2019  14:00:00
15.22 C

Die Daten stammen von einer Davis Vantage Pro 2 Wetter-Station und werden unter Linux mit der Software wview2wettercgi und aufbereitet. Alle Angaben erfolgen ohne Gewähr für ihre Vollständigkeit oder Richtigkeit.
Kontakt: Rainer Krienke krienke@uni-koblenz.de . Meine Webseiten an der Uni Koblenz oder privat.
Version: $Revision: 0.78 $